NOAA 16 DEB, 41415

Orbit data source: Space-Track

NOAA 16 DEB, 41415 is space debris in SSO originally from a launch on Thu, 21 Sep 2000 UTC launched from the Air Force Western Test Range (AFWTR). Debris objects in space refer to the collection of defunct objects orbiting the Earth. Examples of debris include non-operational satellites, rocket bodies, and fragments generated from explosions, collisions, or faulty payload assembly.

Loading next visibility...
Identifier
41415, 2000-055KU
Orbit
SSO
Country
Flag of USUS
Related business
Manufacturer
Unknown
Mission
Spacecraft
Bus & Motor
Unknown
Mass
Unknown
Launch date (UTC)
2000-09-21 (26 years ago)
Launch vehicle
Unknown
Launch site
Air Force Western Test Range (AFWTR)
Object type
Payload
Rocket body
Debris
Shape & HBR
Unknown shape, 0.1 m
Radar Cross Section
Medium (>0.1 m² and <1 m²)

Expand to show TLE details & history
Last TLE update: 2 days ago

TLE from 2 days ago
0 NOAA 16 DEB
1 41415U 00055KU  26205.53782187  .00004890  00000-0  17102-2 0  9995
2 41415  98.7266 302.8247 0006836  97.8809 262.3152 14.35614222539249
Epoch: 2026-07-24T12:54Z
TLE epoch observation values (Epoch: 2026-07-24T12:54:27.809Z)
Latitude
-0.00005°
Longitude
166.94581°
Altitude
776.618 km
Speed
7.465 km/s
True Right ascension
20h 11m 17s
True Declination
0° 00' 00"
Sunlit
Object was in full shadow at epoch
Visualization orbit readout
Latitude
Unknown
Longitude
Unknown
Altitude
Unknown
Speed
Unknown
Apparent Right ascension
Unknown
Apparent Declination
Unknown
Sunlit
N/A
Visualization observer readout
Local Sidereal Time
19:10:58
Azimuth
Unknown
Elevation
Unknown
Doppler factor
Unknown
Orbital elements
Apogee altitude
775.051 km
Perigee altitude
765.278 km
Semi-major axis
7,148.302 km
Eccentricity
0.00068
Inclination
98.7266°
RAAN
302.8247°
Arg. of periapsis
97.8809°
True anomaly
262.23758°
Mean anomaly
262.3152°
Eccentric anomaly
262.27639°
Mean motion
3.59119 °/min
Orbital period
100.25 mins
BSTAR
0.0017102
Loading maneuver chart data...
Computing Atmospheric mass density...
Loading historical data...
Loading historical data...
Loading historical data...
Loading historical data...
Loading historical data...
Loading historical data...
Loading historical data...

Documentation

Showing up to 5 results
|